Hourly Data Report for September 14, 2017

All times are specified in Local Standard Time (LST). Add 1 hour to adjust for Daylight Saving Time where and when it is observed.

SUMMERSIDE
PRINCE EDWARD ISLAND

46°26'28.000" N
63°50'17.000" W
12.20 m
8300596
71702
WSD

Download Data

Hourly Data (September 2017)
Hourly Data Report for September 14, 2017
Temp Definition
°C
Dew Point Temp Definition
°C
Rel Hum Definition
%
Wind Dir Definition
10's deg

Wind Spd Definition
km/h
Visibility Definition
km
Stn Press Definition
kPa
Hmdx Definition


Wind Chill Definition


Weather Definition


TIME
00:00 16.9 14.2 84 22 19   100.44     LegendNANA
01:00 16.7 14.1 84 23 18   100.44     LegendNANA
02:00 17.3 13.5 79 24 22   100.46     LegendNANA
03:00 17.4 13.6 78 24 19   100.46     LegendNANA
04:00 17.6 13.6 78 24 20   100.47     LegendNANA
05:00 16.4 14.0 86 23 16   100.51     LegendNANA
06:00 16.0 14.1 88 23 18   100.57     LegendNANA
07:00 16.6 14.4 87 24 16   100.61     LegendNANA
08:00 18.4 14.3 77 24 19   100.65     LegendNANA
09:00 20.1 15.0 72 24 15   100.69     LegendNANA
10:00 21.0 15.3 70 22 16   100.70 25   LegendNANA
11:00 22.5 15.7 65 23 14   100.71 27   LegendNANA
12:00 23.6 15.7 61 24 16   100.68 28   LegendNANA
13:00 24.4 15.4 58 22 15   100.66 29   LegendNANA
14:00 25.0 14.3 51 24 13   100.64 29   LegendNANA
15:00 24.7 15.0 55 20 13   100.63 29   LegendNANA
16:00 24.2 15.1 57 19 13   100.64 28   LegendNANA
17:00 23.0 15.6 63 19 13   100.69 27   LegendNANA
18:00 21.1 16.2 73 21 14   100.72 26   LegendNANA
19:00 20.1 15.4 75 22 16   100.80     LegendNANA
20:00 18.8 15.5 81 21 18   100.86     LegendNANA
21:00 17.4 15.2 87 31 11   100.97     LegendNANA
22:00 16.0 14.5 91 25 3   101.02     LegendNANA
23:00 16.6 15.4 93 4 10   101.07     LegendNANA

Notes on Data Quality.

Legend

  • E = Estimated
  • M = Missing
  • NA = Not Available
  • ‡ = Partner data that is not subject to review by the National Climate Archives
Date modified: